Location: White Plains
(41.0340°N, 73.7629°W)
Time: 03:00:11
(UTC-04:00)

N. Korean satellite - Visible Passes

Search period start: 15 October 2019 00:00
Search period end: 25 October 2019 00:00
Orbit: 455 x 508 km, 97.2° (Epoch: 14 October)

Date Brightness Start Highest point End Pass type
(mag) Time Alt. Az. Time Alt. Az. Time Alt. Az.
15 Oct 9.6 06:07:02 10° NE 06:09:51 21° E 06:12:41 10° SSE visible
16 Oct 10.5 05:43:36 10° ENE 05:44:24 11° E 05:45:11 10° ESE visible
17 Oct 10.0 18:59:11 10° SW 19:01:21 16° W 19:03:31 10° NW visible
18 Oct 8.5 06:24:05 10° NNE 06:27:27 36° E 06:30:49 10° SSE visible
18 Oct 8.6 18:32:48 10° SSW 18:35:55 33° W 18:39:03 10° NNW visible
19 Oct 9.9 05:59:31 10° NE 06:02:02 18° E 06:04:34 10° SE visible
21 Oct 7.2 06:41:21 10° NNE 06:44:58 63° E 06:48:36 10° S visible
21 Oct 9.7 18:50:54 10° SW 18:53:28 20° W 18:56:04 10° NW visible
22 Oct 8.9 06:16:24 10° NE 06:19:37 29° E 06:22:51 10° SSE visible
23 Oct 10.1 05:52:04 10° ENE 05:54:10 15° E 05:56:16 10° SE visible
24 Oct 10.3 19:09:39 10° WSW 19:11:02 12° W 19:12:26 10° WNW visible
